DW2819 Weather Reports


Display with metric or nautical units.
time (UTC)temp
F
wind
direction
speed
MPH
gust
MPH
rain 1hr
in
rain 24hr
in
rain mn
in
humidity
%
barometer
mb
20260902082652 62 257 1.0 2.0 0.00 0.01 0.00 72 1008.4
20260902082150 62 286 1.0 2.0 0.00 0.01 0.00 72 1008.3
20260902081650 62 320 0.0 2.0 0.00 0.01 0.00 73 1008.3
20260902081152 62 78 1.0 2.0 0.00 0.01 0.00 73 1008.3
20260902080651 61 17 1.0 2.0 0.00 0.01 0.00 76 1008.3
20260902080149 61 326 1.0 2.0 0.00 0.01 0.00 74 1008.2
20260902075651 61 258 1.0 2.0 0.00 0.01 0.00 76 1008.2
20260902075149 61 340 0.0 2.0 0.00 0.01 0.00 75 1008.2
20260902074648 61 94 1.0 3.0 0.00 0.01 0.00 76 1008.2
20260902074148 61 30 1.0 3.0 0.00 0.01 0.00 77 1008.3
20260902073646 60 348 0.0 2.0 0.00 0.01 0.00 78 1008.3
20260902073149 60 289 0.0 1.0 0.00 0.01 0.00 77 1008.2
20260902072152 59 279 1.0 3.0 0.00 0.01 0.00 80 1008.2
20260902071652 59 4 0.0 2.0 0.00 0.01 0.00 81 1008.1
20260902071155 58 351 1.0 2.0 0.00 0.01 0.00 82 1008.2
20260902070650 57 0 0.0 1.0 0.00 0.01 0.00 82 1008.2
20260902070150 58 302 1.0 2.0 0.00 0.01 0.00 83 1008.1
20260902065655 57 251 0.0 2.0 0.00 0.01 0.00 85 1008.1
20260902065150 56 298 1.0 1.0 0.00 0.01 0.00 86 1008.0
20260902064653 55 289 0.0 1.0 0.00 0.01 0.00 89 1008.0
20260902064150 55 334 0.0 1.0 0.00 0.01 0.00 88 1007.9
20260902063650 55 313 0.0 2.0 0.00 0.01 0.00 90 1008.0
20260902063151 54 283 0.0 2.0 0.00 0.01 0.00 91 1007.9
20260902062145 54 353 0.0 1.0 0.00 0.01 0.00 91 1007.9
20260902061646 54 0 0.0 1.0 0.00 0.01 0.00 91 1007.9
20260902061135 54 353 0.0 1.0 0.00 0.01 0.00 91 1007.9
20260902060637 54 0 0.0 1.0 0.00 0.01 0.00 92 1007.8
20260902060133 54 0 0.0 1.0 0.00 0.01 0.00 92 1007.9
20260902055633 54 350 0.0 1.0 0.00 0.01 0.00 93 1007.8
20260902055137 53 350 0.0 1.0 0.00 0.01 0.00 93 1007.8
20260902054630 53 0 0.0 1.0 0.00 0.01 0.00 93 1007.8
20260902054133 53 348 0.0 0.0 0.00 0.01 0.00 94 1007.8
20260902053629 53 348 0.0 1.0 0.00 0.01 0.00 93 1007.8
20260902053131 53 348 0.0 1.0 0.00 0.01 0.00 94 1007.7
20260902052130 53 348 0.0 2.0 0.00 0.01 0.00 93 1007.7
20260902051630 53 348 0.0 2.0 0.00 0.01 0.00 93 1007.7
20260902051129 53 340 0.0 2.0 0.00 0.01 0.00 93 1007.7
20260902050629 53 334 0.0 2.0 0.00 0.01 0.00 94 1007.8
20260902045625 53 355 0.0 2.0 0.00 0.01 0.00 94 1007.7
20260902045107 53 313 0.0 2.0 0.00 0.01 0.00 94 1007.6
20260902044111 53 348 0.0 1.0 0.00 0.01 0.00 94 1007.6
20260902043604 53 348 0.0 1.0 0.00 0.01 0.00 94 1007.7
20260902043058 53 348 0.0 1.0 0.00 0.01 0.00 94 1007.7
20260902042550 54 350 0.0 2.0 0.00 0.01 0.00 94 1007.6
20260902041050 55 0 1.0 1.0 0.00 0.01 0.00 94 1007.6
20260902040550 55 289 0.0 1.0 0.00 0.01 0.00 95 1007.7
20260902040048 55 0 0.0 1.0 0.00 0.01 0.00 95 1007.6
20260902035543 55 0 0.0 1.0 0.00 0.01 0.00 95 1007.5
20260902035044 56 331 0.0 0.0 0.00 0.01 0.00 95 1007.5
20260902034541 55 330 0.0 0.0 0.00 0.01 0.00 95 1007.5
20260902034033 55 330 0.0 0.0 0.00 0.01 0.00 95 1007.5
20260902033533 56 330 0.0 0.0 0.00 0.01 0.00 95 1007.4
20260902033033 56 330 0.0 0.0 0.00 0.01 0.00 95 1007.5
20260902032505 56 331 0.0 2.0 0.00 0.01 0.00 95 1007.4
20260902032006 56 330 0.0 2.0 0.00 0.01 0.00 95 1007.4
20260902031507 56 316 0.0 0.0 0.00 0.01 0.00 95 1007.4
20260902031004 56 316 0.0 0.0 0.00 0.01 0.00 95 1007.4
20260902030508 56 316 0.0 0.0 0.00 0.01 0.00 95 1007.4
20260902025951 56 316 0.0 0.0 0.00 0.01 0.00 95 1007.4
20260902025451 56 316 0.0 0.0 0.00 0.01 0.00 95 1007.4
20260902024950 56 320 0.0 1.0 0.00 0.01 0.00 95 1007.4
20260902023950 56 358 0.0 0.0 0.00 0.01 0.00 95 1007.4
20260902022951 56 358 0.0 1.0 0.00 0.01 0.00 95 1007.4
20260902022447 56 358 0.0 1.0 0.00 0.01 0.00 95 1007.3
20260902021947 56 357 0.0 0.0 0.00 0.01 0.00 95 1007.4
20260902021446 56 357 0.0 1.0 0.00 0.01 0.00 95 1007.3
20260902020946 56 357 0.0 1.0 0.00 0.01 0.00 95 1007.3
20260902020450 56 343 0.0 1.0 0.00 0.01 0.00 95 1007.3
20260902015951 56 343 0.0 1.0 0.00 0.01 0.00 95 1007.3
20260902015450 56 343 0.0 0.0 0.00 0.01 0.00 94 1007.4
20260902014950 56 343 0.0 0.0 0.00 0.01 0.00 95 1007.3
20260902013949 56 343 0.0 0.0 0.00 0.01 0.00 95 1007.3
20260902013450 56 343 0.0 0.0 0.00 0.01 0.00 95 1007.3
20260902012949 56 343 0.0 0.0 0.00 0.01 0.00 95 1007.4
20260902011950 56 343 0.0 0.0 0.00 0.01 0.00 95 1007.3
20260902011451 56 343 0.0 0.0 0.00 0.01 0.00 95 1007.3
20260902010949 56 343 0.0 0.0 0.00 0.01 0.00 95 1007.2
20260902010449 56 343 0.0 0.0 0.00 0.01 0.00 95 1007.4
20260902005451 56 343 0.0 0.0 0.00 0.01 0.00 95 1007.4
20260902004450 56 343 0.0 0.0 0.00 0.01 0.00 95 1007.4
20260902003950 55 343 0.0 0.0 0.00 0.01 0.00 95 1007.4
20260902002449 55 343 0.0 0.0 0.00 0.01 0.00 94 1007.3
20260902001951 55 343 0.0 0.0 0.00 0.01 0.00 94 1007.3
20260902001449 55 343 0.0 0.0 0.00 0.01 0.00 95 1007.3
20260902000950 55 343 0.0 0.0 0.00 0.01 0.00 94 1007.3
20260902000452 55 343 0.0 0.0 0.00 0.01 0.00 94 1007.3
20260901235950 55 343 0.0 0.0 0.00 0.01 0.00 94 1007.3
20260901235450 54 343 0.0 0.0 0.00 0.01 0.00 94 1007.3
20260901234950 54 343 0.0 0.0 0.00 0.01 0.00 93 1007.3
20260901234449 54 343 0.0 0.0 0.00 0.01 0.00 93 1007.3
20260901233950 54 343 0.0 0.0 0.00 0.01 0.00 93 1007.4
20260901233450 54 343 0.0 0.0 0.00 0.01 0.00 93 1007.4
20260901232950 55 343 0.0 0.0 0.00 0.01 0.00 93 1007.4
20260901232450 55 343 0.0 0.0 0.00 0.01 0.00 93 1007.3
20260901231953 55 343 0.0 0.0 0.00 0.01 0.00 93 1007.4
20260901231450 55 343 0.0 0.0 0.00 0.01 0.00 93 1007.5
20260901230949 55 343 0.0 0.0 0.00 0.01 0.00 93 1007.5
20260901230449 55 343 0.0 0.0 0.00 0.01 0.00 93 1007.6
20260901225949 55 343 0.0 0.0 0.00 0.01 0.00 93 1007.6
20260901224951 55 343 0.0 0.0 0.00 0.01 0.00 93 1007.6
20260901223949 55 343 0.0 0.0 0.00 0.01 0.00 93 1007.7
20260901222950 55 343 0.0 0.0 0.00 0.01 0.00 93 1007.5
20260901222450 55 343 0.0 0.0 0.00 0.01 0.00 93 1007.6
20260901221951 55 343 0.0 0.0 0.00 0.01 0.00 93 1007.6
20260901221449 55 343 0.0 0.0 0.00 0.01 0.00 93 1007.6
20260901220949 55 343 0.0 0.0 0.00 0.01 0.00 93 1007.6
20260901220454 55 343 0.0 0.0 0.00 0.01 0.00 93 1007.6
20260901215950 56 343 0.0 0.0 0.00 0.01 0.00 93 1007.6
20260901215450 56 343 0.0 0.0 0.00 0.01 0.00 93 1007.6
20260901214950 56 343 0.0 0.0 0.00 0.01 0.00 93 1007.5
20260901214450 56 343 0.0 0.0 0.00 0.01 0.00 93 1007.6
20260901213950 56 343 0.0 0.0 0.00 0.01 0.00 93 1007.6
20260901213450 56 343 0.0 0.0 0.00 0.01 0.00 93 1007.6
20260901212949 56 343 0.0 0.0 0.00 0.01 0.00 93 1007.6
20260901212449 56 343 0.0 0.0 0.00 0.01 0.00 93 1007.6
20260901211951 56 343 0.0 0.0 0.00 0.01 0.00 93 1007.6
20260901211452 56 343 0.0 0.0 0.00 0.01 0.00 93 1007.6
20260901210952 56 343 0.0 0.0 0.00 0.01 0.00 93 1007.5
20260901210449 56 343 0.0 0.0 0.00 0.01 0.00 93 1007.6
20260901205949 56 343 0.0 0.0 0.00 0.01 0.01 93 1007.6
20260901204950 56 343 0.0 0.0 0.00 0.01 0.01 93 1007.5
20260901204451 56 343 0.0 0.0 0.00 0.01 0.01 93 1007.6
20260901203949 57 343 0.0 0.0 0.00 0.01 0.01 93 1007.6
20260901203450 57 343 0.0 0.0 0.00 0.01 0.01 93 1007.6
20260901202950 57 343 0.0 0.0 0.00 0.01 0.01 93 1007.6
20260901202450 57 343 0.0 0.0 0.00 0.01 0.01 93 1007.6
20260901201949 57 343 0.0 0.0 0.00 0.01 0.01 93 1007.6
20260901200450 57 343 0.0 0.0 0.00 0.01 0.01 93 1007.6
20260901195950 57 343 0.0 0.0 0.00 0.01 0.01 93 1007.5
20260901195450 57 343 0.0 0.0 0.00 0.01 0.01 93 1007.5
20260901194449 57 343 0.0 0.0 0.00 0.01 0.01 92 1007.6
20260901193438 57 343 0.0 0.0 0.00 0.01 0.01 92 1007.5
20260901192936 58 343 0.0 0.0 0.00 0.01 0.01 92 1007.6
20260901192433 58 343 0.0 0.0 0.00 0.01 0.01 92 1007.6
20260901191930 58 343 0.0 0.0 0.00 0.01 0.01 92 1007.6
20260901191432 58 343 0.0 0.0 0.00 0.01 0.01 92 1007.6
20260901190930 58 343 0.0 0.0 0.00 0.01 0.01 92 1007.6
20260901190430 58 343 0.0 0.0 0.00 0.01 0.01 92 1007.7
20260901185431 59 343 0.0 0.0 0.00 0.01 0.01 92 1007.6
20260901184901 59 343 0.0 0.0 0.00 0.01 0.01 92 1007.6
20260901184403 59 343 0.0 0.0 0.00 0.01 0.01 92 1007.6
20260901183905 59 343 0.0 0.0 0.00 0.01 0.01 92 1007.6
20260901183410 59 343 0.0 0.0 0.00 0.01 0.01 92 1007.6
20260901182906 60 343 0.0 0.0 0.00 0.01 0.01 91 1007.6
20260901182406 60 343 0.0 0.0 0.00 0.01 0.01 91 1007.6
20260901181904 60 343 0.0 0.0 0.00 0.01 0.01 91 1007.6
20260901181408 60 343 0.0 0.0 0.00 0.01 0.01 91 1007.7
20260901180901 60 343 0.0 0.0 0.00 0.01 0.01 91 1007.7
20260901180401 61 343 0.0 0.0 0.00 0.01 0.01 91 1007.6
20260901175903 61 343 0.0 0.0 0.00 0.01 0.01 91 1007.7
20260901175401 61 343 0.0 0.0 0.00 0.01 0.01 91 1007.7
20260901174401 61 343 0.0 0.0 0.00 0.01 0.01 91 1007.7
20260901173901 61 343 0.0 0.0 0.00 0.01 0.01 91 1007.7
20260901172900 62 343 0.0 0.0 0.00 0.01 0.01 91 1007.8
20260901171849 62 343 0.0 0.0 0.00 0.01 0.01 91 1007.7
20260901170851 62 343 0.0 0.0 0.00 0.01 0.01 90 1007.6
20260901170349 62 343 0.0 0.0 0.00 0.01 0.01 90 1007.6
20260901165849 62 343 0.0 0.0 0.00 0.01 0.01 90 1007.6
20260901165349 63 343 0.0 0.0 0.00 0.01 0.01 90 1007.6
20260901164848 63 343 0.0 0.0 0.00 0.01 0.01 89 1007.5
20260901163849 63 343 0.0 1.0 0.00 0.01 0.01 89 1007.6
20260901163349 63 343 0.0 0.0 0.00 0.01 0.01 89 1007.5
20260901162848 63 343 0.0 0.0 0.00 0.01 0.01 89 1007.5
20260901162349 63 343 0.0 0.0 0.00 0.01 0.01 88 1007.5
20260901161850 64 343 0.0 0.0 0.00 0.01 0.01 88 1007.6
20260901160845 64 343 0.0 0.0 0.00 0.01 0.01 87 1007.7
20260901160345 64 343 0.0 0.0 0.00 0.01 0.01 88 1007.6
20260901155845 64 343 0.0 0.0 0.00 0.01 0.01 88 1007.7
20260901154849 64 343 0.0 0.0 0.00 0.01 0.01 87 1007.7
20260901154349 64 343 0.0 0.0 0.00 0.01 0.01 87 1007.6
20260901153849 64 343 0.0 0.0 0.00 0.01 0.01 86 1007.7
20260901153349 64 343 0.0 0.0 0.00 0.01 0.01 86 1007.7
20260901152850 65 343 0.0 0.0 0.00 0.01 0.01 85 1007.8
20260901152349 65 343 0.0 0.0 0.00 0.01 0.01 85 1007.8
20260901151849 65 343 0.0 0.0 0.00 0.01 0.01 85 1007.9
20260901150849 65 343 0.0 0.0 0.00 0.01 0.01 85 1007.8
20260901150349 65 343 0.0 0.0 0.00 0.01 0.01 85 1007.8
20260901145349 65 343 0.0 1.0 0.00 0.01 0.01 82 1007.9
20260901144848 65 330 0.0 0.0 0.00 0.01 0.01 82 1007.9
20260901144349 65 330 0.0 0.0 0.00 0.01 0.01 82 1007.9
20260901143349 66 330 0.0 1.0 0.00 0.01 0.01 79 1007.8
20260901142848 66 293 0.0 2.0 0.00 0.01 0.01 80 1007.9
20260901142350 66 244 1.0 2.0 0.00 0.01 0.01 78 1007.9
20260901141850 66 347 0.0 2.0 0.00 0.01 0.01 80 1007.8
20260901141349 66 341 0.0 3.0 0.00 0.01 0.01 79 1007.9
20260901140850 66 138 0.0 3.0 0.00 0.01 0.01 80 1007.9
20260901140349 66 30 1.0 3.0 0.00 0.01 0.01 80 1007.9
20260901135849 66 20 0.0 2.0 0.00 0.01 0.01 81 1007.9
20260901135348 66 357 0.0 1.0 0.00 0.01 0.01 80 1007.9
20260901134350 66 341 0.0 2.0 0.00 0.01 0.01 81 1008.1
20260901133349 66 113 1.0 3.0 0.00 0.01 0.01 80 1008.0
20260901132858 66 140 1.0 3.0 0.00 0.01 0.01 81 1008.0
20260901132355 66 0 1.0 3.0 0.00 0.01 0.01 80 1008.1
20260901131854 66 28 0.0 3.0 0.00 0.01 0.01 81 1008.0
20260901131352 66 44 1.0 3.0 0.00 0.01 0.01 81 1008.0
20260901130851 66 87 1.0 4.0 0.00 0.01 0.01 81 1008.0
20260901125349 65 94 0.0 2.0 0.00 0.01 0.01 82 1008.2
20260901124849 65 90 1.0 2.0 0.00 0.01 0.01 82 1008.1
20260901124350 65 337 1.0 2.0 0.01 0.01 0.01 83 1008.2
20260901123848 65 78 0.0 3.0 0.01 0.01 0.01 82 1008.2
20260901123348 65 0 2.0 3.0 0.01 0.01 0.01 82 1008.2
20260901122850 65 28 1.0 3.0 0.01 0.01 0.01 83 1008.2
20260901122349 66 0 1.0 3.0 0.01 0.01 0.01 82 1008.2
20260901121849 66 11 1.0 2.0 0.01 0.01 0.01 82 1008.3
20260901121350 66 55 1.0 3.0 0.01 0.01 0.01 81 1008.4
20260901120849 66 24 1.0 4.0 0.01 0.01 0.01 81 1008.3
20260901115849 66 154 1.0 3.0 0.01 0.00 0.01 81 1008.3
20260901115348 66 56 1.0 5.0 0.01 0.00 0.01 81 1008.3
20260901114849 66 358 1.0 5.0 0.01 0.00 0.01 80 1008.4
20260901113849 66 17 1.0 4.0 0.00 0.00 0.00 80 1008.4
20260901113348 66 343 2.0 4.0 0.00 0.00 0.00 82 1008.4
20260901112850 65 158 1.0 3.0 0.00 0.00 0.00 85 1008.4
20260901112348 65 47 1.0 5.0 0.00 0.00 0.00 84 1008.4
20260901111849 65 78 2.0 5.0 0.00 0.00 0.00 84 1008.5
20260901111349 65 192 0.0 2.0 0.00 0.00 0.00 86 1008.4
20260901110845 65 0 1.0 3.0 0.00 0.00 0.00 85 1008.5
20260901110345 65 56 1.0 3.0 0.00 0.00 0.00 83 1008.5
20260901105845 65 41 1.0 3.0 0.00 0.00 0.00 84 1008.4
20260901105346 65 14 1.0 3.0 0.00 0.00 0.00 84 1008.5
20260901104848 65 0 0.0 3.0 0.00 0.00 0.00 85 1008.5
20260901104348 65 209 1.0 3.0 0.00 0.00 0.00 85 1008.4
20260901103348 65 286 1.0 3.0 0.00 0.00 0.00 83 1008.5
20260901102349 65 202 1.0 3.0 0.00 0.00 0.00 84 1008.4
20260901101348 65 32 0.0 3.0 0.00 0.00 0.00 83 1008.5
20260901100851 65 159 1.0 3.0 0.00 0.00 0.00 82 1008.3
20260901100349 65 345 0.0 3.0 0.00 0.00 0.00 82 1008.2
20260901095849 65 292 1.0 4.0 0.00 0.00 0.00 81 1008.3
20260901095349 65 127 2.0 4.0 0.00 0.00 0.00 82 1008.2
20260901094838 65 0 1.0 3.0 0.00 0.00 0.00 83 1008.1
20260901094337 65 25 2.0 3.0 0.00 0.00 0.00 84 1008.1
20260901093836 65 0 1.0 3.0 0.00 0.00 0.00 83 1008.1
20260901092830 65 56 1.0 4.0 0.00 0.00 0.00 84 1008.1
20260901092329 65 28 1.0 3.0 0.00 0.00 0.00 83 1008.0
20260901091829 65 66 1.0 3.0 0.00 0.00 0.00 84 1008.1
20260901091302 65 27 2.0 4.0 0.00 0.00 0.00 81 1008.0
20260901090804 65 34 1.0 4.0 0.00 0.00 0.00 82 1008.0
20260901090303 65 292 1.0 4.0 0.00 0.00 0.00 82 1007.9
20260901085801 66 7 0.0 4.0 0.00 0.00 0.00 81 1008.0
20260901085306 66 104 2.0 3.0 0.00 0.00 0.00 81 1008.0
20260901084806 66 179 1.0 5.0 0.00 0.00 0.00 81 1008.0
20260901084305 66 0 2.0 5.0 0.00 0.00 0.00 85 1008.1
20260901083306 64 28 1.0 4.0 0.00 0.01 0.00 86 1008.0